Zurück zum Katalog

CRRES DEB

CANISTER

LostHEO
NORAD 27052·DEBRIS·🇺🇸 United States

Gestartet Jul 25, 1990 von Cape Canaveral Space Force Station

Loading…

Nächste Überflüge (nächste 24 Stunden)

TLE

VeraltetSource: Space-Track

Epoche: Oct 10, 2025, 10:50 UTC

1 27052U 90065V   25283.45144974  .00001570  00000-0  12370-2 0  9992
2 27052  17.9916 313.3829 6915691 214.3919  70.3563  2.70743309260979

Verfolge CRRES DEB in Echtzeit mit AllMySat

Download on the App Store